This is the latest recevied weather packets stored in our database for station/object DK4EP-10. If no packets are shown the sender has not sent any weather packets the latest 10 day(s).
| Time | Temp. | Humidity | Pressure | Rain* | Wind** | Luminosity | Snow |
|---|---|---|---|---|---|---|---|
| 1777555880 | 17.78° C | 46% | 1007 hPa | - | - | - | - |
| 1777554979 | 21.11° C | 40% | 1007 hPa | - | - | - | - |
| 1777554078 | 18.89° C | 43% | 1007 hPa | - | - | - | - |
| 1777553177 | 18.89° C | 44% | 1007 hPa | - | - | - | - |
| 1777552276 | 17.22° C | 41% | 1007 hPa | - | - | - | - |
| 1777551375 | 17.78° C | 43% | 1007 hPa | - | - | - | - |
| 1777550473 | 19.44° C | 41% | 1007 hPa | - | - | - | - |
| 1777549572 | 18.33° C | 42% | 1008 hPa | - | - | - | - |
| 1777548671 | 18.89° C | 43% | 1008 hPa | - | - | - | - |
| 1777547770 | 17.22° C | 42% | 1008 hPa | - | - | - | - |
| 1777546869 | 17.78° C | 41% | 1008 hPa | - | - | - | - |
| 1777545967 | 17.22° C | 42% | 1008 hPa | - | - | - | - |
| 1777545066 | 16.67° C | 42% | 1008 hPa | - | - | - | - |
| 1777544165 | 15° C | 40% | 1009 hPa | - | - | - | - |
| 1777543264 | 16.11° C | 40% | 1009 hPa | - | - | - | - |
| 1777542363 | 15° C | 40% | 1009 hPa | - | - | - | - |
| 1777541461 | 15° C | 43% | 1009 hPa | - | - | - | - |
| 1777540560 | 15.56° C | 38% | 1009 hPa | - | - | - | - |
| 1777539659 | 15.56° C | 42% | 1009 hPa | - | - | - | - |
| 1777538758 | 15° C | 41% | 1009 hPa | - | - | - | - |
| 1777537857 | 16.11° C | 40% | 1009 hPa | - | - | - | - |
| 1777536956 | 16.67° C | 37% | 1009 hPa | - | - | - | - |
| 1777536054 | 15.56° C | 38% | 1009 hPa | - | - | - | - |
| 1777535153 | 16.67° C | 40% | 1009 hPa | - | - | - | - |
| 1777534252 | 15.56° C | 37% | 1009 hPa | - | - | - | - |
* Rain since midnight (hover to see other rain measurements)
** Current wind speed in m/s (hover to see current wind gust speed)